N8VIM Weather Reports


time (UTC)temp
C
wind
direction
speed
KPH
gust
KPH
rain 1hr
cm
rain 24hr
cm
rain mn
cm
humidity
%
barometer
mb
20200224063623 -2 0 0.0 0.0 7.47 0.00 0.00 85 1018.3
20200224063123 -2 0 0.0 0.0 7.47 0.00 0.00 85 1018.3
20200224062623 -2 0 0.0 0.0 7.47 0.00 0.00 85 1018.3
20200224062123 -2 0 0.0 0.0 7.47 0.00 0.00 85 1018.3
20200224061623 -1 0 0.0 0.0 7.47 0.00 0.00 85 1018.3
20200224061123 -1 0 0.0 0.0 7.47 0.00 0.00 84 1018.4
20200224060623 -2 0 0.0 0.0 7.47 0.00 0.00 84 1018.2
20200224060124 -2 0 0.0 0.0 7.47 0.00 0.00 84 1018.2
20200224055623 -2 0 0.0 0.0 7.47 0.00 0.00 85 1018.3
20200224055123 -1 0 0.0 0.0 7.47 0.00 0.00 85 1018.4
20200224054623 -1 0 0.0 0.0 7.47 0.00 0.00 84 1018.2
20200224054122 -1 0 0.0 0.0 7.47 0.00 0.00 84 1018.3
20200224053622 -1 359 0.0 3.2 7.47 0.00 0.00 85 1018.3
20200224053123 -1 55 1.6 8.0 7.47 0.00 0.00 85 1018.4
20200224052623 -1 0 0.0 0.0 7.47 0.00 0.00 85 1018.4
20200224052122 -1 68 0.0 4.8 7.47 0.00 0.00 85 1018.3
20200224051623 -1 38 0.0 4.8 7.47 0.00 0.00 85 1018.3
20200224051122 -1 0 0.0 0.0 7.47 0.00 0.00 85 1018.5
20200224050622 -1 38 0.0 4.8 7.47 0.00 0.00 85 1018.4
20200224050123 -1 0 0.0 0.0 7.47 0.00 0.00 85 1018.4
20200224045622 -1 0 0.0 0.0 7.47 0.00 0.00 85 1018.3
20200224045123 -1 0 0.0 0.0 7.47 0.00 0.00 85 1018.4
20200224044623 -1 0 0.0 0.0 7.47 0.00 0.00 84 1018.4
20200224044123 -1 0 0.0 0.0 7.47 0.00 0.00 81 1018.4
20200224043622 0 38 0.0 3.2 7.47 0.00 0.00 81 1018.3
20200224043123 0 62 0.0 6.4 7.47 0.00 0.00 79 1018.3
20200224042624 0 62 4.8 4.8 7.47 0.00 0.00 79 1018.3
20200224042122 0 62 0.0 3.2 7.47 0.00 0.00 79 1018.3
20200224041623 0 0 0.0 0.0 7.47 0.00 0.00 77 1018.3
20200224041122 0 52 0.0 1.6 7.47 0.00 0.00 77 1018.3
20200224040622 0 56 1.6 4.8 7.47 0.00 0.00 77 1018.3
20200224040123 0 0 1.6 0.0 7.47 0.00 0.00 78 1018.3
20200224035622 0 0 0.0 0.0 7.47 0.00 0.00 78 1018.3
20200224035122 0 0 0.0 0.0 7.47 0.00 0.00 79 1018.3
20200224034623 0 37 0.0 6.4 7.47 0.00 0.00 80 1018.3
20200224034122 0 359 3.2 4.8 7.47 0.00 0.00 80 1018.3
20200224033622 0 0 0.0 0.0 7.47 0.00 0.00 81 1018.4
20200224033123 0 17 0.0 8.0 7.47 0.00 0.00 80 1018.3
20200224032622 0 20 4.8 8.0 7.47 0.00 0.00 80 1018.3
20200224032122 0 34 1.6 6.4 7.47 0.00 0.00 80 1018.4
20200224031623 -1 41 3.2 6.4 7.47 0.00 0.00 82 1018.3
20200224031122 -1 44 1.6 6.4 7.47 0.00 0.00 83 1018.2
20200224030622 -1 38 4.8 8.0 7.47 0.00 0.00 84 1018.3
20200224030123 0 0 0.0 0.0 7.47 0.00 0.00 83 1018.4
20200224025622 0 0 0.0 0.0 7.47 0.00 0.00 81 1018.2
20200224025124 0 14 0.0 3.2 7.47 0.00 0.00 81 1018.1
20200224024623 0 27 0.0 3.2 7.47 0.00 0.00 80 1018.1
20200224024122 0 46 1.6 4.8 7.47 0.00 0.00 82 1018.1
20200224023622 0 39 3.2 4.8 7.47 0.00 0.00 83 1018.1
20200224023123 0 0 0.0 0.0 7.47 0.00 0.00 81 1018.1
20200224022622 0 0 0.0 0.0 7.47 0.00 0.00 79 1018.0
20200224022123 0 0 0.0 0.0 7.47 0.00 0.00 80 1018.0
20200224021623 0 0 0.0 0.0 7.47 0.00 0.00 80 1018.0
20200224021122 0 352 0.0 3.2 7.47 0.00 0.00 81 1018.1
20200224020622 0 4 1.6 3.2 7.47 0.00 0.00 79 1018.0
20200224020123 0 20 3.2 4.8 7.47 0.00 0.00 75 1017.9
20200224015622 0 21 4.8 6.4 7.47 0.00 0.00 76 1017.9
20200224015122 0 352 0.0 1.6 7.47 0.00 0.00 78 1017.9
20200224014623 0 21 0.0 4.8 7.47 0.00 0.00 77 1017.9
20200224014122 0 11 3.2 4.8 7.47 0.00 0.00 75 1017.8
20200224013622 0 15 3.2 4.8 7.47 0.00 0.00 75 1017.9
20200224013123 0 11 4.8 4.8 7.47 0.00 0.00 77 1017.9
20200224012622 0 0 0.0 0.0 7.47 0.00 0.00 77 1017.9
20200224012122 1 0 0.0 0.0 7.47 0.00 0.00 76 1017.9
20200224011623 1 0 0.0 0.0 7.47 0.00 0.00 76 1017.9
20200224011122 1 0 0.0 0.0 7.47 0.00 0.00 73 1017.9
20200224010622 1 0 0.0 0.0 7.47 0.00 0.00 73 1017.9
20200224010123 1 0 0.0 0.0 7.47 0.00 0.00 73 1017.9
20200224005622 1 0 0.0 0.0 7.47 0.00 0.00 73 1017.9
20200224005122 1 0 0.0 0.0 7.47 0.00 0.00 71 1017.9
20200224004623 2 0 0.0 0.0 7.47 0.00 0.00 70 1017.8
20200224004122 2 0 0.0 0.0 7.47 0.00 0.00 72 1017.8
20200224003622 2 0 0.0 0.0 7.47 0.00 0.00 69 1017.8
20200224003122 2 0 0.0 0.0 7.47 0.00 0.00 67 1017.8
20200224002622 2 0 0.0 0.0 7.47 0.00 0.00 62 1017.8
20200224002123 3 0 0.0 0.0 7.47 0.00 0.00 61 1017.8
20200224001623 3 0 0.0 0.0 7.47 0.00 0.00 61 1017.8
20200224001122 3 0 0.0 0.0 7.47 0.00 0.00 61 1017.8
20200224000622 3 0 0.0 0.0 7.47 0.00 0.00 61 1017.7
20200224000155 3 0 0.0 0.0 7.47 0.00 0.00 60 1017.7
20200224000123 3 0 0.0 0.0 7.47 0.00 0.00 60 1017.7
20200223235622 4 0 0.0 0.0 7.47 0.00 0.00 59 1017.7
20200223235122 4 0 0.0 0.0 7.47 0.00 0.00 58 1017.6
20200223234623 4 0 0.0 0.0 7.47 0.00 0.00 57 1017.6
20200223234122 5 0 0.0 0.0 7.47 0.00 0.00 55 1017.6
20200223233622 5 319 0.0 1.6 7.47 0.00 0.00 55 1017.6
20200223233122 5 323 0.0 1.6 7.47 0.00 0.00 54 1017.5
20200223232622 5 0 0.0 0.0 7.47 0.00 0.00 55 1017.6
20200223232122 5 0 0.0 0.0 7.47 0.00 0.00 53 1017.6
20200223231622 6 0 0.0 0.0 7.47 0.00 0.00 51 1017.6
20200223231122 6 0 0.0 0.0 7.47 0.00 0.00 49 1017.5
20200223230622 7 0 0.0 0.0 7.47 0.00 0.00 47 1017.5
20200223230122 7 0 0.0 0.0 7.47 0.00 0.00 45 1017.4
20200223225622 7 0 0.0 0.0 7.47 0.00 0.00 44 1017.3
20200223225122 7 0 0.0 0.0 7.47 0.00 0.00 44 1017.3
20200223224622 7 0 0.0 0.0 7.47 0.00 0.00 43 1017.2
20200223224122 8 0 0.0 0.0 7.47 0.00 0.00 42 1017.3
20200223223622 8 290 0.0 3.2 7.47 0.00 0.00 41 1017.2
20200223223122 8 0 0.0 0.0 7.47 0.00 0.00 40 1017.2
20200223222622 8 0 0.0 0.0 7.47 0.00 0.00 40 1017.2
20200223222122 9 0 0.0 0.0 7.47 0.00 0.00 39 1017.2
20200223221622 9 0 0.0 0.0 7.47 0.00 0.00 39 1017.1
20200223221122 9 0 0.0 0.0 7.47 0.00 0.00 39 1017.1
20200223220622 10 172 0.0 0.0 7.47 0.00 0.00 38 1017.1
20200223220122 10 0 0.0 0.0 7.47 0.00 0.00 38 1017.1
20200223215622 10 211 0.0 3.2 7.47 0.00 0.00 38 1017.2
20200223215122 10 0 0.0 0.0 7.47 0.00 0.00 38 1017.2
20200223214622 10 311 0.0 4.8 7.47 0.00 0.00 38 1017.3
20200223214122 10 314 0.0 9.7 7.47 0.00 0.00 38 1017.2
20200223213622 10 280 0.0 6.4 7.47 0.00 0.00 38 1017.2
20200223213122 10 0 0.0 0.0 7.47 0.00 0.00 38 1017.3
20200223212621 10 300 0.0 4.8 7.47 0.00 0.00 39 1017.3
20200223212121 10 300 1.6 8.0 7.47 0.00 0.00 40 1017.3
20200223211622 10 284 4.8 6.4 7.47 0.00 0.00 38 1017.3
20200223211122 10 183 1.6 9.7 7.47 0.00 0.00 38 1017.2
20200223210621 10 305 4.8 8.0 7.47 0.00 0.00 38 1017.3
20200223210122 10 198 1.6 11.3 7.47 0.00 0.00 37 1017.2
20200223205622 10 312 3.2 11.3 7.47 0.00 0.00 38 1017.2
20200223205121 10 288 3.2 16.1 7.47 0.00 0.00 38 1017.3
20200223204622 10 332 4.8 9.7 7.47 0.00 0.00 36 1017.4
20200223204124 10 298 4.8 12.9 7.47 0.00 0.00 37 1017.4
20200223203621 10 276 1.6 11.3 7.47 0.00 0.00 36 1017.3
20200223203123 10 300 6.4 12.9 7.47 0.00 0.00 36 1017.3
20200223202621 10 311 6.4 14.5 7.47 0.00 0.00 36 1017.4
20200223202121 10 293 8.0 16.1 7.47 0.00 0.00 35 1017.4
20200223201622 10 304 6.4 14.5 7.47 0.00 0.00 36 1017.4
20200223201121 10 278 3.2 9.7 7.47 0.00 0.00 38 1017.4
20200223200621 10 293 6.4 17.7 7.47 0.00 0.00 36 1017.4
20200223200122 10 235 9.7 14.5 7.47 0.00 0.00 36 1017.4
20200223195621 10 248 4.8 11.3 7.47 0.00 0.00 36 1017.5
20200223195121 10 300 1.6 16.1 7.47 0.00 0.00 38 1017.5
20200223194622 10 285 4.8 20.9 7.47 0.00 0.00 37 1017.6
20200223194121 11 283 3.2 20.9 7.47 0.00 0.00 35 1017.6
20200223193621 11 287 6.4 19.3 7.47 0.00 0.00 35 1017.7
20200223193122 10 309 8.0 14.5 7.47 0.00 0.00 37 1017.7
20200223192621 10 218 4.8 19.3 7.47 0.00 0.00 38 1017.7
20200223192121 10 221 4.8 19.3 7.47 0.00 0.00 36 1017.8
20200223191622 10 271 8.0 14.5 7.47 0.00 0.00 36 1017.8
20200223191121 10 273 8.0 16.1 7.47 0.00 0.00 37 1017.9
20200223190621 10 203 4.8 19.3 7.47 0.00 0.00 36 1017.9
20200223190123 10 255 11.3 17.7 7.47 0.00 0.00 36 1017.9
20200223185621 11 295 9.7 17.7 7.47 0.00 0.00 36 1018.0
20200223185122 11 308 4.8 20.9 7.47 0.00 0.00 36 1018.0
20200223184622 11 176 11.3 19.3 7.47 0.00 0.00 34 1018.1
20200223184121 11 293 9.7 17.7 7.47 0.00 0.00 34 1018.1
20200223183621 11 293 11.3 17.7 7.47 0.00 0.00 34 1018.1
20200223183122 11 285 6.4 22.5 7.47 0.00 0.00 35 1018.2
20200223182621 11 285 1.6 17.7 7.47 0.00 0.00 37 1018.2
20200223182121 11 186 9.7 22.5 7.47 0.00 0.00 36 1018.3
20200223181622 10 288 1.6 17.7 7.47 0.00 0.00 36 1018.3
20200223181121 10 312 8.0 19.3 7.47 0.00 0.00 38 1018.4
20200223180621 10 194 8.0 29.0 7.47 0.00 0.00 38 1018.4
20200223180122 11 295 9.7 22.5 7.47 0.00 0.00 35 1018.4
20200223175621 11 285 4.8 14.5 7.47 0.00 0.00 36 1018.5
20200223175121 11 224 4.8 12.9 7.47 0.00 0.00 37 1018.7
20200223174622 10 316 6.4 12.9 7.47 0.00 0.00 38 1018.6
20200223174122 10 322 1.6 14.5 7.47 0.00 0.00 39 1018.8
20200223173621 10 293 4.8 19.3 7.47 0.00 0.00 38 1018.8
20200223173124 10 288 9.7 16.1 7.47 0.00 0.00 38 1019.0
20200223172623 10 285 11.3 16.1 7.47 0.00 0.00 38 1019.1
20200223172121 10 287 11.3 17.7 7.47 0.00 0.00 39 1019.2
20200223171622 10 212 8.0 19.3 7.47 0.00 0.00 40 1019.1
20200223171121 10 295 9.7 9.7 7.47 0.00 0.00 41 1019.2
20200223170621 10 311 1.6 16.1 7.47 0.00 0.00 40 1019.3
20200223170122 10 200 9.7 16.1 7.47 0.00 0.00 41 1019.4
20200223165621 10 315 11.3 16.1 7.47 0.00 0.00 42 1019.4
20200223165121 9 290 3.2 17.7 7.47 0.00 0.00 42 1019.5
20200223164622 9 141 3.2 12.9 7.47 0.00 0.00 43 1019.5
20200223164121 9 290 1.6 9.7 7.47 0.00 0.00 44 1019.6
20200223163621 9 293 4.8 16.1 7.47 0.00 0.00 43 1019.7
20200223163122 9 294 8.0 17.7 7.47 0.00 0.00 42 1019.8
20200223162621 9 308 9.7 9.7 7.47 0.00 0.00 41 1019.8
20200223162121 8 274 6.4 12.9 7.47 0.00 0.00 44 1019.9
20200223161621 8 281 3.2 19.3 7.47 0.00 0.00 43 1019.9
20200223161121 8 291 3.2 14.5 7.47 0.00 0.00 45 1020.0
20200223160621 8 294 8.0 14.5 7.47 0.00 0.00 45 1020.0
20200223160121 8 304 4.8 20.9 7.47 0.00 0.00 45 1020.1
20200223155621 8 301 4.8 11.3 7.47 0.00 0.00 46 1020.1
20200223155121 8 287 4.8 12.9 7.47 0.00 0.00 46 1020.1
20200223154621 8 190 6.4 12.9 7.47 0.00 0.00 46 1020.2
20200223154121 7 180 9.7 12.9 7.47 0.00 0.00 48 1020.4
20200223153621 7 302 4.8 14.5 7.47 0.00 0.00 47 1020.3
20200223153121 7 293 8.0 14.5 7.47 0.00 0.00 48 1020.4
20200223152621 7 291 9.7 11.3 7.47 0.00 0.00 48 1020.5
20200223152121 6 270 1.6 11.3 7.47 0.00 0.00 52 1020.5
20200223151621 6 158 1.6 6.4 7.47 0.00 0.00 51 1020.5
20200223151121 6 158 3.2 9.7 7.47 0.00 0.00 52 1020.5
20200223150621 6 300 3.2 11.3 7.47 0.00 0.00 52 1020.6
20200223150121 5 204 6.4 11.3 7.47 0.00 0.00 51 1020.6
20200223145621 5 194 4.8 8.0 7.47 0.00 0.00 55 1020.7
20200223145121 5 314 1.6 12.9 7.47 0.00 0.00 56 1020.8
20200223144621 5 280 9.7 9.7 7.47 0.00 0.00 55 1020.7
20200223144121 4 187 6.4 6.4 7.47 0.00 0.00 59 1020.8
20200223143621 3 191 3.2 6.4 7.47 0.00 0.00 57 1020.8
20200223143123 3 158 0.0 8.0 7.47 0.00 0.00 60 1020.9
20200223142621 3 298 3.2 3.2 7.47 0.00 0.00 61 1021.0
20200223142123 3 203 1.6 6.4 7.47 0.00 0.00 61 1021.1
20200223141621 2 190 1.6 6.4 7.47 0.00 0.00 64 1021.2
20200223141121 2 200 4.8 8.0 7.47 0.00 0.00 66 1021.3
20200223140621 2 176 6.4 8.0 7.47 0.00 0.00 68 1021.3
20200223140123 1 194 3.2 6.4 7.47 0.00 0.00 69 1021.4
20200223135622 1 186 1.6 4.8 7.47 0.00 0.00 70 1021.4
20200223135122 1 145 1.6 1.6 7.47 0.00 0.00 72 1021.5
20200223134621 0 180 0.0 4.8 7.47 0.00 0.00 73 1021.5
20200223134121 0 215 1.6 4.8 7.47 0.00 0.00 75 1021.6
20200223133620 0 212 3.2 4.8 7.47 0.00 0.00 76 1021.6
20200223133121 0 215 3.2 6.4 7.47 0.00 0.00 78 1021.7
20200223132620 -1 226 4.8 3.2 7.47 0.00 0.00 79 1021.8
20200223132121 -1 0 0.0 0.0 7.47 0.00 0.00 81 1021.8
20200223131621 -1 0 0.0 0.0 7.47 0.00 0.00 82 1021.8
20200223131121 -1 343 0.0 1.6 7.47 0.00 0.00 82 1021.8
20200223130621 -2 242 0.0 3.2 7.47 0.00 0.00 84 1021.8
20200223130121 -2 339 1.6 4.8 7.47 0.00 0.00 86 1021.7
20200223125620 -2 330 1.6 8.0 7.47 0.00 0.00 87 1021.7
20200223125121 -2 4 3.2 3.2 7.47 0.00 0.00 88 1021.7
20200223124621 -3 3 1.6 4.8 7.47 0.00 0.00 88 1021.7
20200223124120 -3 11 3.2 6.4 7.47 0.00 0.00 89 1021.7
20200223123620 -3 13 3.2 6.4 7.47 0.00 0.00 90 1021.7
20200223123121 -3 24 3.2 4.8 7.47 0.00 0.00 91 1021.6
20200223122620 -3 35 1.6 4.8 7.47 0.00 0.00 91 1021.6
20200223122120 -4 1 0.0 4.8 7.47 0.00 0.00 91 1021.6
20200223121621 -4 0 3.2 0.0 7.47 0.00 0.00 91 1021.6
20200223121120 -4 0 0.0 0.0 7.47 0.00 0.00 92 1021.5
20200223120620 -4 0 0.0 0.0 7.47 0.00 0.00 92 1021.5
20200223120121 -4 0 0.0 0.0 7.47 0.00 0.00 92 1021.5
20200223115621 -4 0 0.0 0.0 7.47 0.00 0.00 91 1021.5
20200223115120 -4 0 0.0 0.0 7.47 0.00 0.00 91 1021.5
20200223114621 -4 0 0.0 0.0 7.47 0.00 0.00 91 1021.5
20200223114120 -4 0 0.0 0.0 7.47 0.00 0.00 90 1021.5
20200223113620 -3 0 0.0 0.0 7.47 0.00 0.00 89 1021.5
20200223113121 -3 0 0.0 0.0 7.47 0.00 0.00 89 1021.5
20200223112620 -3 0 0.0 0.0 7.47 0.00 0.00 89 1021.5
20200223112120 -3 0 0.0 0.0 7.47 0.00 0.00 89 1021.5
20200223111621 -3 0 0.0 0.0 7.47 0.00 0.00 89 1021.6
20200223111120 -3 0 0.0 0.0 7.47 0.00 0.00 89 1021.6
20200223110620 -3 0 0.0 0.0 7.47 0.00 0.00 89 1021.6
20200223110239 -3 0 0.0 0.0 7.47 0.00 0.00 89 1021.6
20200223110121 -3 0 0.0 0.0 7.47 0.00 0.00 89 1021.6
20200223105620 -3 0 0.0 0.0 7.47 0.00 0.00 89 1021.7
20200223105120 -3 0 0.0 0.0 7.47 0.00 0.00 89 1021.8
20200223104621 -3 0 0.0 0.0 7.47 0.00 0.00 89 1021.8
20200223104120 -3 0 0.0 0.0 7.47 0.00 0.00 90 1021.8
20200223103620 -3 0 0.0 0.0 7.47 0.00 0.00 89 1021.8
20200223103121 -3 0 0.0 0.0 7.47 0.00 0.00 89 1021.7
20200223102620 -3 0 0.0 0.0 7.47 0.00 0.00 88 1021.7
20200223102120 -3 0 0.0 0.0 7.47 0.00 0.00 89 1021.7
20200223101621 -3 0 0.0 0.0 7.47 0.00 0.00 88 1021.7
20200223101120 -3 0 0.0 0.0 7.47 0.00 0.00 88 1021.6
20200223100620 -3 0 0.0 0.0 7.47 0.00 0.00 89 1021.7
20200223100121 -3 0 0.0 0.0 7.47 0.00 0.00 89 1021.6
20200223095620 -3 0 0.0 0.0 7.47 0.00 0.00 89 1021.6
20200223095120 -3 0 0.0 0.0 7.47 0.00 0.00 89 1021.5
20200223094621 -3 0 0.0 0.0 7.47 0.00 0.00 90 1021.4
20200223094122 -3 0 0.0 0.0 7.47 0.00 0.00 90 1021.4
20200223093620 -3 0 0.0 0.0 7.47 0.00 0.00 90 1021.4
20200223093121 -4 0 0.0 0.0 7.47 0.00 0.00 90 1021.3
20200223092620 -4 0 0.0 0.0 7.47 0.00 0.00 90 1021.3
20200223092120 -3 0 0.0 0.0 7.47 0.00 0.00 90 1021.3
20200223091621 -3 0 0.0 0.0 7.47 0.00 0.00 91 1021.3
20200223091123 -3 0 0.0 0.0 7.47 0.00 0.00 91 1021.3
20200223090620 -3 0 0.0 0.0 7.47 0.00 0.00 90 1021.2
20200223090121 -3 0 0.0 0.0 7.47 0.00 0.00 90 1021.1
20200223085620 -3 0 0.0 0.0 7.47 0.00 0.00 90 1021.0
20200223085120 -3 0 0.0 0.0 7.47 0.00 0.00 90 1021.0
20200223084621 -3 0 0.0 0.0 7.47 0.00 0.00 90 1020.9
20200223084120 -3 1 0.0 1.6 7.47 0.00 0.00 89 1020.9
20200223083620 -3 1 0.0 3.2 7.47 0.00 0.00 89 1021.0
20200223083121 -3 1 1.6 3.2 7.47 0.00 0.00 90 1020.9
20200223082620 -3 37 1.6 3.2 7.47 0.00 0.00 89 1020.9
20200223082120 -3 314 3.2 4.8 7.47 0.00 0.00 88 1020.9
20200223081620 -3 0 0.0 0.0 7.47 0.00 0.00 88 1020.9
20200223081120 -3 0 0.0 0.0 7.47 0.00 0.00 88 1021.0
20200223080620 -3 0 0.0 0.0 7.47 0.00 0.00 88 1020.9
20200223080120 -3 0 0.0 0.0 7.47 0.00 0.00 88 1020.9
20200223075621 -3 0 0.0 0.0 7.47 0.00 0.00 88 1020.9
20200223075120 -3 0 0.0 0.0 7.47 0.00 0.00 87 1020.9
20200223074621 -3 0 0.0 0.0 7.47 0.00 0.00 87 1020.9
20200223074120 -3 0 0.0 0.0 7.47 0.00 0.00 87 1020.9
20200223073620 -3 0 0.0 0.0 7.47 0.00 0.00 88 1020.9
20200223073121 -3 0 0.0 0.0 7.47 0.00 0.00 88 1020.9
20200223072620 -3 0 0.0 0.0 7.47 0.00 0.00 88 1020.9
20200223072120 -3 336 0.0 3.2 7.47 0.00 0.00 88 1020.9
20200223071620 -3 356 0.0 1.6 7.47 0.00 0.00 87 1020.9
20200223071120 -3 0 0.0 0.0 7.47 0.00 0.00 86 1020.9
20200223070620 -3 0 0.0 0.0 7.47 0.00 0.00 86 1020.9
20200223070120 -3 0 0.0 0.0 7.47 0.00 0.00 86 1021.0
20200223065620 -3 359 0.0 1.6 7.47 0.00 0.00 86 1021.0
20200223065120 -3 0 0.0 0.0 7.47 0.00 0.00 86 1021.0
20200223064620 -2 0 0.0 0.0 7.47 0.00 0.00 87 1021.0
20200223064120 -2 0 0.0 0.0 7.47 0.00 0.00 87 1021.0